Pagina principale
METAR-TAF:

METAR-TAF

Aeroporti :

Aeroporto di Esenboğa

Ankara Esenboğa, Turchia

latitudine: 40-07N, longitudine: 032-59E, altezza: 953 m

Osservazione

Il bollettino è stato emesso 39 minuti fa, alle 18:50 UTC
Vento 7 kt da nord
Temperature 21°C
Umidità 30%
Pressione 1015 hPa
Visibilità 10 km o più
nessuna nube inferiore a 1500 m e nessun cumulonembo

METAR: LTAC 141850Z 36007KT CAVOK 21/03 Q1015 NOSIG

Ora: 22:29 (19:29 UTC)

Previsione

Il bollettino è stato emesso 2 ore e 49 minuti fa, alle 16:40 UTC
Previsione valida dal 14 alle 18 UTC al 15 alle 18 UTC
Vento 2 kt da direzioni variabili
Visibilità 10 km o più
nessuna nube inferiore a 1500 m e nessun cumulonembo

TAF: LTAC 141640Z 1418/1518 VRB02KT CAVOK

Osservazioni e previsioni meteorologiche di più di 4000 aeroporti (messaggi METAR e TAF).

Le stazioni disponibili sono rappresentate dai dischi gialli e rossi sulla carta.

Puntare il mouse per vedere il nome della stazione.

Clicca sopra per visualizzare le osservazioni e previsioni meteorologiche.

Per cambiare la mappa : fare clic sui pulsanti verdi con una croce nera per ingrandire, il pulsante verde con un trattino per diminuire, o sulla freccia verde per le mappe adiacenti.


METAR-TAF: